owner,sensor,date,latitude,longitude,vertical_datum,wind_speed,wind_to_direction,wind_speed_of_gust,qcFlag 
TABS,ioos:station:wmo:42043:1,2013-08-01T00:00:00Z,28.9818,-94.9186,4.0,4.836941182,188.8003878,5.93,'11111222,11111222,11111222' 
TABS,ioos:station:wmo:42043:1,2013-08-01T00:30:00Z,28.9818,-94.9186,4.0,4.757835642,191.0267108,6.12,'11111222,11111222,11111222' 
TABS,ioos:station:wmo:42043:1,2013-08-01T01:00:00Z,28.9818,-94.9186,4.0,4.653815639,186.9114214,5.94,'11111222,11111222,11111222' 
TABS,ioos:station:wmo:42043:1,2013-08-01T01:30:00Z,28.9818,-94.9186,4.0,4.475455284,193.0427751,5.73,'11111222,11111222,11111222' 
TABS,ioos:station:wmo:42043:1,2013-08-01T02:00:00Z,28.9818,-94.9186,4.0,4.562126697,193.8232007,6.14,'11111222,11111222,11111222' 
TABS,ioos:station:wmo:42043:1,2013-08-01T02:30:00Z,28.9818,-94.9186,4.0,4.809407448,192.2447097,6.14,'11111222,11111222,11111222' 
TABS,ioos:station:wmo:42043:1,2013-08-01T03:00:00Z,28.9818,-94.9186,4.0,4.894486694,186.805775,5.98,'11111222,11111222,11111222' 
TABS,ioos:station:wmo:42043:1,2013-08-01T03:30:00Z,28.9818,-94.9186,4.0,4.795424903,192.0365254,6.0,'11111222,11111222,11111222' 
TABS,ioos:station:wmo:42043:1,2013-08-01T04:00:00Z,28.9818,-94.9186,4.0,4.323019778,195.2901661,5.42,'11111222,11111222,11111222' 
TABS,ioos:station:wmo:42043:1,2013-08-01T04:30:00Z,28.9818,-94.9186,4.0,4.324361225,204.0164547,5.2,'11111222,11111222,11111222' 
TABS,ioos:station:wmo:42043:1,2013-08-01T05:00:00Z,28.9818,-94.9186,4.0,4.750094736,191.7832324,5.79,'11111222,11111222,11111222' 
TABS,ioos:station:wmo:42043:1,2013-08-01T05:30:00Z,28.9818,-94.9186,4.0,5.17818501,192.2649555,6.26,'11111222,11111222,11111222' 
TABS,ioos:station:wmo:42043:1,2013-08-01T06:00:00Z,28.9818,-94.9186,4.0,4.862519923,192.3500604,6.15,'11111222,11111222,11111222' 
TABS,ioos:station:wmo:42043:1,2013-08-01T06:30:00Z,28.9818,-94.9186,4.0,5.100245092,195.6986731,6.25,'11111222,11111222,11111222' 
TABS,ioos:station:wmo:42043:1,2013-08-01T07:00:00Z,28.9818,-94.9186,4.0,4.62438104,200.9042407,5.81,'11111222,11111222,11111222' 
TABS,ioos:station:wmo:42043:1,2013-08-01T07:30:00Z,28.9818,-94.9186,4.0,5.370335185,201.9798743,6.96,'11111222,11111222,11111222' 
TABS,ioos:station:wmo:42043:1,2013-08-01T08:00:00Z,28.9818,-94.9186,4.0,5.296206189,200.2143371,6.87,'11111222,11111222,11111222' 
TABS,ioos:station:wmo:42043:1,2013-08-01T08:30:00Z,28.9818,-94.9186,4.0,5.29076554,207.0979416,6.93,'11111222,11111222,11111222' 
TABS,ioos:station:wmo:42043:1,2013-08-01T09:00:00Z,28.9818,-94.9186,4.0,5.138813093,207.2134255,6.84,'11111222,11111222,11111222' 
TABS,ioos:station:wmo:42043:1,2013-08-01T09:30:00Z,28.9818,-94.9186,4.0,4.948019806,217.0321352,6.71,'11111222,11111222,11111222' 
TABS,ioos:station:wmo:42043:1,2013-08-01T10:00:00Z,28.9818,-94.9186,4.0,5.023325592,223.0640882,6.49,'11111222,11111222,11111222' 
TABS,ioos:station:wmo:42043:1,2013-08-01T10:30:00Z,28.9818,-94.9186,4.0,4.546702102,225.0892119,5.72,'11111222,11111222,11111222' 
TABS,ioos:station:wmo:42043:1,2013-08-01T11:00:00Z,28.9818,-94.9186,4.0,4.268782028,227.7534957,5.64,'11111222,11111222,11111222' 
TABS,ioos:station:wmo:42043:1,2013-08-01T11:30:00Z,28.9818,-94.9186,4.0,4.274037903,233.3714884,5.45,'11111222,11111222,11111222' 
TABS,ioos:station:wmo:42043:1,2013-08-01T12:00:00Z,28.9818,-94.9186,4.0,3.905086427,239.3634284,5.28,'11111222,11111222,11111222' 
TABS,ioos:station:wmo:42043:1,2013-08-01T12:30:00Z,28.9818,-94.9186,4.0,3.610678607,234.2410453,5.26,'11111222,11111222,11111222' 
TABS,ioos:station:wmo:42043:1,2013-08-01T13:00:00Z,28.9818,-94.9186,4.0,4.680170937,251.5650943,5.91,'11111222,11111222,11111222' 
TABS,ioos:station:wmo:42043:1,2013-08-01T13:30:00Z,28.9818,-94.9186,4.0,4.019203901,261.9908784,5.26,'11111222,11111222,11111222' 
TABS,ioos:station:wmo:42043:1,2013-08-01T14:00:00Z,28.9818,-94.9186,4.0,4.324176222,267.4816756,5.66,'11111222,11111222,11111222' 
TABS,ioos:station:wmo:42043:1,2013-08-01T14:30:00Z,28.9818,-94.9186,4.0,4.736084881,274.7234442,5.64,'11111222,11111222,11111222' 
TABS,ioos:station:wmo:42043:1,2013-08-01T15:00:00Z,28.9818,-94.9186,4.0,4.36716155,273.2817074,5.61,'11111222,11111222,11111222' 
TABS,ioos:station:wmo:42043:1,2013-08-01T15:30:00Z,28.9818,-94.9186,4.0,4.054454341,272.6859745,5.11,'11111222,11111222,11111222' 
TABS,ioos:station:wmo:42043:1,2013-08-01T16:00:00Z,28.9818,-94.9186,4.0,3.464173783,267.187158,4.44,'11111222,11111222,11111222' 
TABS,ioos:station:wmo:42043:1,2013-08-01T16:30:00Z,28.9818,-94.9186,4.0,3.15762569,258.120715,4.3,'11111222,11111222,11111222' 
TABS,ioos:station:wmo:42043:1,2013-08-01T17:00:00Z,28.9818,-94.9186,4.0,2.827083303,242.1660111,3.55,'11111222,11111222,11111222' 
TABS,ioos:station:wmo:42043:1,2013-08-01T17:30:00Z,28.9818,-94.9186,4.0,3.073044093,236.4134329,3.88,'11111222,11111222,11111222' 
TABS,ioos:station:wmo:42043:1,2013-08-01T18:00:00Z,28.9818,-94.9186,4.0,2.990819286,231.7890639,3.89,'11111222,11111222,11111222' 
TABS,ioos:station:wmo:42043:1,2013-08-01T18:30:00Z,28.9818,-94.9186,4.0,2.757752708,224.706284,3.46,'11111222,11111222,11111222' 
TABS,ioos:station:wmo:42043:1,2013-08-01T19:00:00Z,28.9818,-94.9186,4.0,2.992824753,205.1095696,3.82,'11111222,11111222,11111222' 
TABS,ioos:station:wmo:42043:1,2013-08-01T19:30:00Z,28.9818,-94.9186,4.0,2.512866889,194.7553442,3.33,'11111222,11111222,11111222' 
TABS,ioos:station:wmo:42043:1,2013-08-01T20:00:00Z,28.9818,-94.9186,4.0,2.330085835,180.4920065,3.02,'11111222,11111222,11111222' 
TABS,ioos:station:wmo:42043:1,2013-08-01T20:30:00Z,28.9818,-94.9186,4.0,2.430514349,178.821454,3.09,'11111222,11111222,11111222' 
TABS,ioos:station:wmo:42043:1,2013-08-01T21:00:00Z,28.9818,-94.9186,4.0,2.753470537,168.6903044,3.71,'11111222,11111222,11111222' 
TABS,ioos:station:wmo:42043:1,2013-08-01T21:30:00Z,28.9818,-94.9186,4.0,3.417864831,170.4001145,4.13,'11111222,11111222,11111222' 
TABS,ioos:station:wmo:42043:1,2013-08-01T22:00:00Z,28.9818,-94.9186,4.0,3.680665701,175.6373326,4.66,'11111222,11111222,11111222' 
TABS,ioos:station:wmo:42043:1,2013-08-01T22:30:00Z,28.9818,-94.9186,4.0,4.03744969,173.3152608,4.88,'11111222,11111222,11111222' 
TABS,ioos:station:wmo:42043:1,2013-08-01T23:00:00Z,28.9818,-94.9186,4.0,4.28042054,180.8033678,5.24,'11111222,11111222,11111222' 
TABS,ioos:station:wmo:42043:1,2013-08-01T23:30:00Z,28.9818,-94.9186,4.0,4.390410004,179.2171752,5.37,'11111222,11111222,11111222' 
TABS,ioos:station:wmo:42043:1,2013-08-02T00:00:00Z,28.9818,-94.9186,4.0,4.505873944,182.9261085,5.97,'11111222,11111222,11111222' 
TABS,ioos:station:wmo:42043:1,2013-08-02T00:30:00Z,28.9818,-94.9186,4.0,4.715336679,184.6225699,5.85,'11111222,11111222,11111222' 
TABS,ioos:station:wmo:42043:1,2013-08-02T01:00:00Z,28.9818,-94.9186,4.0,4.640107757,191.3101165,5.81,'11111222,11111222,11111222' 
TABS,ioos:station:wmo:42043:1,2013-08-02T01:30:00Z,28.9818,-94.9186,4.0,4.72508201,193.2129264,5.86,'11111222,11111222,11111222' 
TABS,ioos:station:wmo:42043:1,2013-08-02T02:00:00Z,28.9818,-94.9186,4.0,4.600532578,188.5001653,5.55,'11111222,11111222,11111222' 
TABS,ioos:station:wmo:42043:1,2013-08-02T02:30:00Z,28.9818,-94.9186,4.0,5.225246406,190.363878,6.46,'11111222,11111222,11111222' 
TABS,ioos:station:wmo:42043:1,2013-08-02T03:00:00Z,28.9818,-94.9186,4.0,4.852813617,185.5580649,5.98,'11111222,11111222,11111222' 
TABS,ioos:station:wmo:42043:1,2013-08-02T03:30:00Z,28.9818,-94.9186,4.0,5.287872918,190.4600951,6.37,'11111222,11111222,11111222' 
TABS,ioos:station:wmo:42043:1,2013-08-02T04:00:00Z,28.9818,-94.9186,4.0,5.213492112,186.4981594,6.17,'11111222,11111222,11111222' 
TABS,ioos:station:wmo:42043:1,2013-08-02T04:30:00Z,28.9818,-94.9186,4.0,4.905965756,190.0961162,5.77,'11111222,11111222,11111222' 
TABS,ioos:station:wmo:42043:1,2013-08-02T05:00:00Z,28.9818,-94.9186,4.0,5.174678734,182.436853,6.21,'11111222,11111222,11111222' 
TABS,ioos:station:wmo:42043:1,2013-08-02T05:30:00Z,28.9818,-94.9186,4.0,5.212446642,183.960513,6.33,'11111222,11111222,11111222' 
TABS,ioos:station:wmo:42043:1,2013-08-02T06:00:00Z,28.9818,-94.9186,4.0,5.061788222,191.5099068,5.88,'11111222,11111222,11111222' 
TABS,ioos:station:wmo:42043:1,2013-08-02T06:30:00Z,28.9818,-94.9186,4.0,5.019422278,202.1195216,6.38,'11111222,11111222,11111222' 
TABS,ioos:station:wmo:42043:1,2013-08-02T07:00:00Z,28.9818,-94.9186,4.0,5.080993997,201.1105366,5.92,'11111222,11111222,11111222' 
TABS,ioos:station:wmo:42043:1,2013-08-02T07:30:00Z,28.9818,-94.9186,4.0,5.49946361,204.6079327,6.78,'11111222,11111222,11111222' 
TABS,ioos:station:wmo:42043:1,2013-08-02T08:00:00Z,28.9818,-94.9186,4.0,4.950656522,206.5134419,6.14,'11111222,11111222,11111222' 
TABS,ioos:station:wmo:42043:1,2013-08-02T08:30:00Z,28.9818,-94.9186,4.0,4.683641745,215.3529353,5.92,'11111222,11111222,11111222' 
TABS,ioos:station:wmo:42043:1,2013-08-02T09:00:00Z,28.9818,-94.9186,4.0,4.576548918,214.3152178,5.86,'11111222,11111222,11111222' 
TABS,ioos:station:wmo:42043:1,2013-08-02T09:30:00Z,28.9818,-94.9186,4.0,4.781736086,210.2652018,6.03,'11111222,11111222,11111222' 
TABS,ioos:station:wmo:42043:1,2013-08-02T10:00:00Z,28.9818,-94.9186,4.0,4.798676901,206.8855819,5.95,'11111222,11111222,11111222' 
TABS,ioos:station:wmo:42043:1,2013-08-02T10:30:00Z,28.9818,-94.9186,4.0,4.954725018,211.3803665,5.78,'11111222,11111222,11111222' 
TABS,ioos:station:wmo:42043:1,2013-08-02T11:00:00Z,28.9818,-94.9186,4.0,4.615668966,212.7950276,5.46,'11111222,11111222,11111222' 
TABS,ioos:station:wmo:42043:1,2013-08-02T11:30:00Z,28.9818,-94.9186,4.0,4.163195888,227.9208199,5.23,'11111222,11111222,11111222' 
TABS,ioos:station:wmo:42043:1,2013-08-02T12:00:00Z,28.9818,-94.9186,4.0,3.466020773,233.328557,4.47,'11111222,11111222,11111222' 
TABS,ioos:station:wmo:42043:1,2013-08-02T12:30:00Z,28.9818,-94.9186,4.0,3.278444753,232.1864164,4.15,'11111222,11111222,11111222' 
TABS,ioos:station:wmo:42043:1,2013-08-02T13:00:00Z,28.9818,-94.9186,4.0,2.590829983,237.2914252,3.81,'11111222,11111222,11111222' 
TABS,ioos:station:wmo:42043:1,2013-08-02T13:30:00Z,28.9818,-94.9186,4.0,2.731830888,248.9775962,3.69,'11111222,11111222,11111222' 
TABS,ioos:station:wmo:42043:1,2013-08-02T14:00:00Z,28.9818,-94.9186,4.0,3.133831521,255.2099428,3.79,'11111222,11111222,11111222' 
TABS,ioos:station:wmo:42043:1,2013-08-02T14:30:00Z,28.9818,-94.9186,4.0,2.960270258,270.7742184,3.73,'11111222,11111222,11111222' 
TABS,ioos:station:wmo:42043:1,2013-08-02T15:00:00Z,28.9818,-94.9186,4.0,2.823915721,288.3707449,3.81,'11111222,11111222,11111222' 
TABS,ioos:station:wmo:42043:1,2013-08-02T15:30:00Z,28.9818,-94.9186,4.0,1.974335331,309.6568515,2.78,'11111222,11111222,11111222' 
TABS,ioos:station:wmo:42043:1,2013-08-02T16:00:00Z,28.9818,-94.9186,4.0,1.369379421,276.7098211,2.33,'11111222,11111222,11111222' 
TABS,ioos:station:wmo:42043:1,2013-08-02T16:30:00Z,28.9818,-94.9186,4.0,1.780702109,287.315595,2.6,'11111222,11111222,11111222' 
TABS,ioos:station:wmo:42043:1,2013-08-02T17:00:00Z,28.9818,-94.9186,4.0,0.876641318,249.2910108,1.61,'11111222,11111222,11111222' 
TABS,ioos:station:wmo:42043:1,2013-08-02T17:30:00Z,28.9818,-94.9186,4.0,1.61136588,155.8211599,2.54,'11111222,11111222,11111222' 
TABS,ioos:station:wmo:42043:1,2013-08-02T18:00:00Z,28.9818,-94.9186,4.0,1.930025907,159.6874317,2.95,'11111222,11111222,11111222' 
TABS,ioos:station:wmo:42043:1,2013-08-02T18:30:00Z,28.9818,-94.9186,4.0,2.178003673,165.644985,3.59,'11111222,11111222,11111222' 
TABS,ioos:station:wmo:42043:1,2013-08-02T19:00:00Z,28.9818,-94.9186,4.0,1.738073646,171.7302682,3.16,'11111222,11111222,11111222' 
TABS,ioos:station:wmo:42043:1,2013-08-02T19:30:00Z,28.9818,-94.9186,4.0,1.948794499,187.9639789,3.19,'11111222,11111222,11111222' 
TABS,ioos:station:wmo:42043:1,2013-08-02T20:00:00Z,28.9818,-94.9186,4.0,2.113669794,214.5924183,2.97,'11111222,11111222,11111222' 
TABS,ioos:station:wmo:42043:1,2013-08-02T20:30:00Z,28.9818,-94.9186,4.0,2.501999201,182.2908151,3.58,'11111222,11111222,11111222' 
TABS,ioos:station:wmo:42043:1,2013-08-02T21:00:00Z,28.9818,-94.9186,4.0,3.406024075,174.4402762,4.45,'11111222,11111222,11111222' 
TABS,ioos:station:wmo:42043:1,2013-08-02T21:30:00Z,28.9818,-94.9186,4.0,3.931272059,162.5332002,5.09,'11111222,11111222,11111222' 
TABS,ioos:station:wmo:42043:1,2013-08-02T22:00:00Z,28.9818,-94.9186,4.0,4.223091285,160.0635157,5.37,'11111222,11111222,11111222' 
TABS,ioos:station:wmo:42043:1,2013-08-02T22:30:00Z,28.9818,-94.9186,4.0,4.830734934,154.4961306,6.47,'11111222,11111222,11111222' 
TABS,ioos:station:wmo:42043:1,2013-08-02T23:00:00Z,28.9818,-94.9186,4.0,4.284121847,158.645883,5.36,'11111222,11111222,11111222' 
TABS,ioos:station:wmo:42043:1,2013-08-02T23:30:00Z,28.9818,-94.9186,4.0,4.176086685,169.79356,5.38,'11111222,11111222,11111222' 
TABS,ioos:station:wmo:42043:1,2013-08-03T00:00:00Z,28.9818,-94.9186,4.0,3.983013934,166.940932,5.33,'11111222,11111222,11111222' 
TABS,ioos:station:wmo:42043:1,2013-08-03T00:30:00Z,28.9818,-94.9186,4.0,4.945139027,170.6902921,6.38,'11111222,11111222,11111222' 
TABS,ioos:station:wmo:42043:1,2013-08-03T01:00:00Z,28.9818,-94.9186,4.0,5.528806381,163.827094,7.32,'11111222,11111222,11111222' 
TABS,ioos:station:wmo:42043:1,2013-08-03T01:30:00Z,28.9818,-94.9186,4.0,5.363021536,169.9056113,6.85,'11111222,11111222,11111222' 
TABS,ioos:station:wmo:42043:1,2013-08-03T02:00:00Z,28.9818,-94.9186,4.0,6.034840512,169.3047613,7.56,'11111222,11111222,11111222' 
TABS,ioos:station:wmo:42043:1,2013-08-03T02:30:00Z,28.9818,-94.9186,4.0,5.450110091,168.4635146,6.86,'11111222,11111222,11111222' 
TABS,ioos:station:wmo:42043:1,2013-08-03T03:00:00Z,28.9818,-94.9186,4.0,5.175915378,165.4538834,6.53,'11111222,11111222,11111222' 
TABS,ioos:station:wmo:42043:1,2013-08-03T03:30:00Z,28.9818,-94.9186,4.0,4.912321244,170.8638861,6.4,'11111222,11111222,11111222' 
TABS,ioos:station:wmo:42043:1,2013-08-03T04:00:00Z,28.9818,-94.9186,4.0,5.373583534,168.7321261,6.7,'11111222,11111222,11111222' 
TABS,ioos:station:wmo:42043:1,2013-08-03T04:30:00Z,28.9818,-94.9186,4.0,5.801327434,172.3729526,7.28,'11111222,11111222,11111222' 
TABS,ioos:station:wmo:42043:1,2013-08-03T05:00:00Z,28.9818,-94.9186,4.0,5.551252111,167.5162118,7.19,'11111222,11111222,11111222' 
TABS,ioos:station:wmo:42043:1,2013-08-03T05:30:00Z,28.9818,-94.9186,4.0,6.338611835,172.2024944,8.17,'11111222,11111222,11111222' 
TABS,ioos:station:wmo:42043:1,2013-08-03T06:00:00Z,28.9818,-94.9186,4.0,5.868372858,173.4443942,7.67,'11111222,11111222,11111222' 
TABS,ioos:station:wmo:42043:1,2013-08-03T06:30:00Z,28.9818,-94.9186,4.0,6.099483585,176.804756,7.81,'11111222,11111222,11111222' 
TABS,ioos:station:wmo:42043:1,2013-08-03T07:00:00Z,28.9818,-94.9186,4.0,6.072972913,181.7930637,7.57,'11111222,11111222,11111222' 
TABS,ioos:station:wmo:42043:1,2013-08-03T07:30:00Z,28.9818,-94.9186,4.0,6.288417925,189.0580774,8.23,'11111222,11111222,11111222' 
TABS,ioos:station:wmo:42043:1,2013-08-03T08:00:00Z,28.9818,-94.9186,4.0,6.619131363,191.7684719,8.71,'11111222,11111222,11111222' 
TABS,ioos:station:wmo:42043:1,2013-08-03T08:30:00Z,28.9818,-94.9186,4.0,6.492680494,193.9936153,8.62,'11111222,11111222,11111222' 
TABS,ioos:station:wmo:42043:1,2013-08-03T09:00:00Z,28.9818,-94.9186,4.0,5.879608831,191.0807822,7.62,'11111222,11111222,11111222' 
TABS,ioos:station:wmo:42043:1,2013-08-03T09:30:00Z,28.9818,-94.9186,4.0,5.614499087,200.7592557,7.03,'11111222,11111222,11111222' 
TABS,ioos:station:wmo:42043:1,2013-08-03T10:00:00Z,28.9818,-94.9186,4.0,5.407864643,199.1052101,6.89,'11111222,11111222,11111222' 
TABS,ioos:station:wmo:42043:1,2013-08-03T10:30:00Z,28.9818,-94.9186,4.0,5.289158723,196.9276839,6.57,'11111222,11111222,11111222' 
TABS,ioos:station:wmo:42043:1,2013-08-03T11:00:00Z,28.9818,-94.9186,4.0,5.250838028,192.3159509,6.58,'11111222,11111222,11111222' 
TABS,ioos:station:wmo:42043:1,2013-08-03T11:30:00Z,28.9818,-94.9186,4.0,4.414159037,194.1623454,5.93,'11111222,11111222,11111222' 
TABS,ioos:station:wmo:42043:1,2013-08-03T12:00:00Z,28.9818,-94.9186,4.0,4.438423143,201.1303536,6.24,'11111222,11111222,11111222' 
TABS,ioos:station:wmo:42043:1,2013-08-03T12:30:00Z,28.9818,-94.9186,4.0,4.132602086,205.8211421,5.37,'11111222,11111222,11111222' 
TABS,ioos:station:wmo:42043:1,2013-08-03T13:00:00Z,28.9818,-94.9186,4.0,3.811364585,199.623652,5.02,'11111222,11111222,11111222' 
TABS,ioos:station:wmo:42043:1,2013-08-03T13:30:00Z,28.9818,-94.9186,4.0,3.930407104,204.0218484,5.15,'11111222,11111222,11111222' 
TABS,ioos:station:wmo:42043:1,2013-08-03T14:00:00Z,28.9818,-94.9186,4.0,4.421515577,199.4186358,5.51,'11111222,11111222,11111222' 
TABS,ioos:station:wmo:42043:1,2013-08-03T14:30:00Z,28.9818,-94.9186,4.0,4.273511437,199.8343615,5.45,'11111222,11111222,11111222' 
TABS,ioos:station:wmo:42043:1,2013-08-03T15:00:00Z,28.9818,-94.9186,4.0,3.528809998,196.1239901,4.67,'11111222,11111222,11111222' 
TABS,ioos:station:wmo:42043:1,2013-08-03T15:30:00Z,28.9818,-94.9186,4.0,3.454185866,199.7990405,4.48,'11111222,11111222,11111222' 
TABS,ioos:station:wmo:42043:1,2013-08-03T16:00:00Z,28.9818,-94.9186,4.0,3.065746239,193.5831422,4.05,'11111222,11111222,11111222' 
TABS,ioos:station:wmo:42043:1,2013-08-03T16:30:00Z,28.9818,-94.9186,4.0,2.4919069,198.7259545,3.17,'11111222,11111222,11111222' 
TABS,ioos:station:wmo:42043:1,2013-08-03T17:00:00Z,28.9818,-94.9186,4.0,2.440512241,181.1741373,3.07,'11111222,11111222,11111222' 
TABS,ioos:station:wmo:42043:1,2013-08-03T17:30:00Z,28.9818,-94.9186,4.0,2.572800031,177.3268691,3.43,'11111222,11111222,11111222' 
TABS,ioos:station:wmo:42043:1,2013-08-03T18:00:00Z,28.9818,-94.9186,4.0,2.964456105,164.7451274,4.0,'11111222,11111222,11111222' 
TABS,ioos:station:wmo:42043:1,2013-08-03T18:30:00Z,28.9818,-94.9186,4.0,2.685386378,176.3706481,3.51,'11111222,11111222,11111222' 
TABS,ioos:station:wmo:42043:1,2013-08-03T19:00:00Z,28.9818,-94.9186,4.0,3.011062935,178.477761,3.83,'11111222,11111222,11111222' 
TABS,ioos:station:wmo:42043:1,2013-08-03T19:30:00Z,28.9818,-94.9186,4.0,3.441409595,175.333363,4.34,'11111222,11111222,11111222' 
TABS,ioos:station:wmo:42043:1,2013-08-03T20:00:00Z,28.9818,-94.9186,4.0,3.893712881,177.4978799,4.93,'11111222,11111222,11111222' 
TABS,ioos:station:wmo:42043:1,2013-08-03T20:30:00Z,28.9818,-94.9186,4.0,4.023133107,162.6462264,4.93,'11111222,11111222,11111222' 
TABS,ioos:station:wmo:42043:1,2013-08-03T21:00:00Z,28.9818,-94.9186,4.0,4.362900411,163.3513198,5.55,'11111222,11111222,11111222' 
TABS,ioos:station:wmo:42043:1,2013-08-03T21:30:00Z,28.9818,-94.9186,4.0,4.398738456,155.4161733,5.69,'11111222,11111222,11111222' 
TABS,ioos:station:wmo:42043:1,2013-08-03T22:00:00Z,28.9818,-94.9186,4.0,4.515451251,159.5184689,5.82,'11111222,11111222,11111222' 
TABS,ioos:station:wmo:42043:1,2013-08-03T22:30:00Z,28.9818,-94.9186,4.0,4.25681806,159.2236648,5.63,'11111222,11111222,11111222' 
TABS,ioos:station:wmo:42043:1,2013-08-03T23:00:00Z,28.9818,-94.9186,4.0,4.332539671,155.7423725,5.55,'11111222,11111222,11111222' 
TABS,ioos:station:wmo:42043:1,2013-08-03T23:30:00Z,28.9818,-94.9186,4.0,4.701063709,156.161526,5.67,'11111222,11111222,11111222' 
TABS,ioos:station:wmo:42043:1,2013-08-04T00:00:00Z,28.9818,-94.9186,4.0,5.048405689,155.6690254,6.66,'11111222,11111222,11111222' 
TABS,ioos:station:wmo:42043:1,2013-08-04T00:30:00Z,28.9818,-94.9186,4.0,4.86153268,158.3958186,6.26,'11111222,11111222,11111222' 
TABS,ioos:station:wmo:42043:1,2013-08-04T01:00:00Z,28.9818,-94.9186,4.0,4.837364985,158.154863,6.27,'11111222,11111222,11111222' 
TABS,ioos:station:wmo:42043:1,2013-08-04T01:30:00Z,28.9818,-94.9186,4.0,5.458809394,160.6359088,7.01,'11111222,11111222,11111222' 
TABS,ioos:station:wmo:42043:1,2013-08-04T02:00:00Z,28.9818,-94.9186,4.0,5.549666657,163.4592255,7.12,'11111222,11111222,11111222' 
TABS,ioos:station:wmo:42043:1,2013-08-04T02:30:00Z,28.9818,-94.9186,4.0,6.136122554,162.7464909,7.96,'11111222,11111222,11111222' 
TABS,ioos:station:wmo:42043:1,2013-08-04T03:00:00Z,28.9818,-94.9186,4.0,6.087897831,160.8212473,7.36,'11111222,11111222,11111222' 
TABS,ioos:station:wmo:42043:1,2013-08-04T03:30:00Z,28.9818,-94.9186,4.0,5.93872882,159.7039277,7.36,'11111222,11111222,11111222' 
TABS,ioos:station:wmo:42043:1,2013-08-04T04:00:00Z,28.9818,-94.9186,4.0,6.387002427,159.1817282,8.02,'11111222,11111222,11111222' 
TABS,ioos:station:wmo:42043:1,2013-08-04T04:30:00Z,28.9818,-94.9186,4.0,6.111104646,162.869949,7.64,'11111222,11111222,11111222' 
TABS,ioos:station:wmo:42043:1,2013-08-04T05:00:00Z,28.9818,-94.9186,4.0,6.374590183,167.7736523,7.99,'11111222,11111222,11111222' 
TABS,ioos:station:wmo:42043:1,2013-08-04T05:30:00Z,28.9818,-94.9186,4.0,6.40290559,173.3635772,8.01,'11111222,11111222,11111222' 
TABS,ioos:station:wmo:42043:1,2013-08-04T06:00:00Z,28.9818,-94.9186,4.0,6.923503448,175.2778146,8.37,'11111222,11111222,11111222' 
TABS,ioos:station:wmo:42043:1,2013-08-04T06:30:00Z,28.9818,-94.9186,4.0,6.863854602,178.0799387,8.29,'11111222,11111222,11111222' 
TABS,ioos:station:wmo:42043:1,2013-08-04T07:00:00Z,28.9818,-94.9186,4.0,6.830117129,180.3357595,8.17,'11111222,11111222,11111222' 
TABS,ioos:station:wmo:42043:1,2013-08-04T07:30:00Z,28.9818,-94.9186,4.0,5.798275606,184.550481,7.62,'11111222,11111222,11111222' 
TABS,ioos:station:wmo:42043:1,2013-08-04T08:00:00Z,28.9818,-94.9186,4.0,5.77564715,191.485213,7.07,'11111222,11111222,11111222' 
TABS,ioos:station:wmo:42043:1,2013-08-04T08:30:00Z,28.9818,-94.9186,4.0,6.560190546,190.9846739,7.92,'11111222,11111222,11111222' 
TABS,ioos:station:wmo:42043:1,2013-08-04T09:00:00Z,28.9818,-94.9186,4.0,6.046288118,198.315251,7.44,'11111222,11111222,11111222' 
TABS,ioos:station:wmo:42043:1,2013-08-04T09:30:00Z,28.9818,-94.9186,4.0,4.993085219,204.871467,6.45,'11111222,11111222,11111222' 
TABS,ioos:station:wmo:42043:1,2013-08-04T10:00:00Z,28.9818,-94.9186,4.0,5.09754843,201.2797651,6.21,'11111222,11111222,11111222' 
TABS,ioos:station:wmo:42043:1,2013-08-04T10:30:00Z,28.9818,-94.9186,4.0,4.762404855,200.5280456,6.58,'11111222,11111222,11111222' 
TABS,ioos:station:wmo:42043:1,2013-08-04T11:00:00Z,28.9818,-94.9186,4.0,4.258074682,205.6023381,5.07,'11111222,11111222,11111222' 
TABS,ioos:station:wmo:42043:1,2013-08-04T11:30:00Z,28.9818,-94.9186,4.0,4.485465416,202.9639298,6.03,'11111222,11111222,11111222' 
TABS,ioos:station:wmo:42043:1,2013-08-04T12:00:00Z,28.9818,-94.9186,4.0,4.575150271,192.8821581,5.8,'11111222,11111222,11111222' 
TABS,ioos:station:wmo:42043:1,2013-08-04T12:30:00Z,28.9818,-94.9186,4.0,4.338029507,206.2698638,5.37,'11111222,11111222,11111222' 
TABS,ioos:station:wmo:42043:1,2013-08-04T13:00:00Z,28.9818,-94.9186,4.0,3.798697145,203.2581615,4.6,'11111222,11111222,11111222' 
TABS,ioos:station:wmo:42043:1,2013-08-04T13:30:00Z,28.9818,-94.9186,4.0,3.640027472,203.8188053,4.7,'11111222,11111222,11111222' 
TABS,ioos:station:wmo:42043:1,2013-08-04T14:00:00Z,28.9818,-94.9186,4.0,4.075414089,205.1189647,5.46,'11111222,11111222,11111222' 
TABS,ioos:station:wmo:42043:1,2013-08-04T14:30:00Z,28.9818,-94.9186,4.0,3.556880656,210.9638946,4.45,'11111222,11111222,11111222' 
TABS,ioos:station:wmo:42043:1,2013-08-04T15:00:00Z,28.9818,-94.9186,4.0,3.588606972,203.1358536,4.41,'11111222,11111222,11111222' 
TABS,ioos:station:wmo:42043:1,2013-08-04T15:30:00Z,28.9818,-94.9186,4.0,3.220077639,201.3059443,4.22,'11111222,11111222,11111222' 
TABS,ioos:station:wmo:42043:1,2013-08-04T16:00:00Z,28.9818,-94.9186,4.0,3.377691519,197.5768186,4.17,'11111222,11111222,11111222' 
TABS,ioos:station:wmo:42043:1,2013-08-04T16:30:00Z,28.9818,-94.9186,4.0,4.019614409,197.6688157,5.25,'11111222,11111222,11111222' 
TABS,ioos:station:wmo:42043:1,2013-08-04T17:00:00Z,28.9818,-94.9186,4.0,4.386570414,176.8638594,6.03,'11111222,11111222,11111222' 
TABS,ioos:station:wmo:42043:1,2013-08-04T17:30:00Z,28.9818,-94.9186,4.0,3.112362447,157.7202598,4.0,'11111222,11111222,11111222' 
TABS,ioos:station:wmo:42043:1,2013-08-04T18:00:00Z,28.9818,-94.9186,4.0,3.599069324,174.0995435,4.78,'11111222,11111222,11111222' 
TABS,ioos:station:wmo:42043:1,2013-08-04T18:30:00Z,28.9818,-94.9186,4.0,3.193900437,172.9864643,4.23,'11111222,11111222,11111222' 